YAOGAN 1

导读 | 豆包AI

YAOGAN 1(遥感一号)是中国于2006年4月26日8时发射的首颗遥感卫星,主要用于国土资源勘查、环境监测与保护、城市规划、农作物估产、防灾减灾和空间科学试验等领域。它的成功发射标志着中国遥感卫星技术进入新发展阶段,为国民经济建设提供了有力的空间信息支撑,推动了中国航天遥感产业的应用发展。

Basic Information
目录编号:
29092
目录名称:
YAOGAN 1
国际标识:
2006-015A
轨道中心:
EARTH
卫星名称:
YAOGAN 1
卫星全名:
--
卫星状态:
在轨 (已飞行7284 天)
发射日期:
2006-04-26 UTC
国别 :
中国 (CN)
星等 :
--
Orbit Information
数据来源 国际轨道数据 AOE轨道数据
星历时间 2026-04-05T07:41:01+0800
19小时前
查看轨道信息
2026-03-30T09:00:00+0800
6天前
查看轨道信息
半长轴 6983.44km 6983.5km
偏心率 0.0001611 0.0001951
轨道倾角 97.753° 97.755°
近地点辐角 92.449° 80.938°
升交点赤经 117.627° 111.814°
平近点角 267.691° 139.662°
近地点 604.177km 604km
远地点 606.429km 606.726km
周期 96.797分钟 96.799分钟
每日圈数 14.876428 14.876236
Detailed Information
使用方式:
暂无
2D Orbit Map
3D Orbit Map
Orbit Altitude Analysis Chart
Orbit Inclination Analysis Chart
Orbit Comprehensive Analysis Chart
View Comprehensive Chart